Location: Diati
(11.8376°N, 2.5966°E)
Time: 17:42:14
(UTC+00:00)

Cosmos 1844 Rocket - Pass Details

Date: 21 September 2020
Orbit: 823 x 846 km, 71.0° (Epoch: 19 October)

Event Time Altitude Azimuth Distance (km) Brightness Sun altitude
Rises 18:36:55 0° 203° (SSW) 3,348 6.1 -13.3°
Reaches altitude 10° 18:39:22 10° 206° (SSW) 2,415 5.4 -13.9°
Maximum altitude 18:44:49 62° 286° (WNW) 919 3.2 -15.2°
Drops below altitude 10° 18:50:17 10° 7° (N) 2,417 5.0 -16.5°
Sets 18:52:45 0° 11° (N) 3,351 5.8 -17.1°
